Regional Weather Roundup
Issued by NWS

Home | Current Version | Previous Version | Graphics & Text | Print | Product List | Glossary On
Versions: 1 2 3 4 5 6 7 8 9 10 11 12 13 14 15 16 17 18 19 20 21 22 23 24 25 26 27 28 29 30 31 32 33 34 35 36 37 38 39 40 41 42 43 44 45 46 47 48 49 50
023
ASUS44 KJAN 250810
RWRMS

MISSISSIPPI HOURLY WEATHER ROUNDUP
NATIONAL WEATHER SERVICE JACKSON MS
300 AM CDT SAT OCT 25 2014

NOTE: "FAIR: INDICATES FEW OR NO CLOUDS BELOW 12,000 FEET WITH NO
SIGNIFICANT WEATHER AND/OR OBSTRUCTIONS TO VISIBILITY.

MSZ001>002-007>008-010>013-018>021-025>028-034>036-250900-
NORTHWEST MISSISSIPPI

CITY           SKY/WX    TMP DP  RH WIND       PRES   REMARKS
CLARKSDALE     FAIR      57  55  94 SW3       30.11S
CLEVELAND      FAIR      53  53  98 CALM      30.10S
GREENWOOD      CLEAR     49  47  93 CALM      30.11S
GREENVILLE     CLEAR     55  52  89 CALM      30.10S
GRENADA          N/A    N/A N/A N/A MISG        N/A
OLIVE BRANCH   CLEAR     54  54 100 S3        30.09F
OXFORD         FAIR      48  48 100 CALM      30.12S
TUNICA         SUNNY     52  50  93 S5        30.09F
$$

MSZ003>006-009-014>017-022>024-029>033-037>039-250900-
NORTHEAST MISSISSIPPI

CITY           SKY/WX    TMP DP  RH WIND       PRES   REMARKS
COLUMBUS AFB   CLEAR     46  45  97 CALM      30.10S
CORINTH        FOG       48  46  93 CALM      30.09S VSB 1
GOLDN TRIANGLE CLEAR    N/A N/A N/A W3        30.09S
STARKVILLE     FAIR      45  45 100 CALM      30.10S
TUPELO         CLEAR     50  48  93 CALM      30.10S
$$

MSZ040-058-250900-
CENTRAL MISSISSIPPI

CITY           SKY/WX    TMP DP  RH WIND       PRES   REMARKS
JACKSON INTL   CLEAR     48  46  93 CALM      30.12S
JACKSON HAWKNS CLEAR     50  47  89 CALM      30.12S
MERIDIAN KEY   CLEAR     44  41  89 CALM      30.10F
MERIDIAN NAS   CLEAR     45  44  97 W3        30.10F
RAYMOND        FAIR      45  39  81 MISG      30.12S
VICKSBURG      CLEAR     46  44  93 CALM      30.12F
$$

MSZ059>079-250900-
SOUTH MISSISSIPPI

CITY           SKY/WX    TMP DP  RH WIND       PRES   REMARKS
BROOKHAVEN     FAIR      46  45  93 CALM      30.13F
COLUMBIA         N/A    N/A N/A N/A MISG        N/A
HATTIESBURG    CLEAR     47  46  97 CALM      30.11F
MCCOMB         CLEAR     56  45  66 N6        30.11S
NATCHEZ        CLEAR     46  43  87 CALM      30.13S
PINE BELT      CLEAR     52  45  76 CALM      30.11F
$$

MSZ080>082-250900-
COASTAL MISSISSIPPI

CITY           SKY/WX    TMP DP  RH WIND       PRES   REMARKS
BILOXI         CLEAR     57  47  71 N6        30.08S
PASCAGOULA     CLEAR     42  42 100 CALM      30.08S
GULFPORT       CLEAR     51  47  86 CALM      30.08S
$$



USA.gov is the U.S. government's official web portal to all federal, state and local government web resources and services.